Location: Austin
(30.3000°N, 97.7500°W)
Time: 23:40:54
(UTC-05:00)

Sakura Rocket - Pass Details

Date: 08 April 2026
Orbit: 475 x 1688 km, 28.7° (Epoch: 20 April)

Event Time Altitude Azimuth Distance (km) Brightness Sun altitude
Rises 21:44:11 0° 274° (W) 3,278 7.9 -23.5°
Reaches altitude 10° 21:46:23 10° 271° (W) 2,499 7.0 -23.9°
Maximum altitude 21:52:26 69° 189° (S) 1,149 4.2 -25.1°
Enters shadow 21:54:17 51° 130° (SE) 1,403 4.4 -25.4°
